Content
SEND FEEDBACK

Daily
Averages
Monthly
Summary
Switzerland

KUSNACHT, SWITZERLAND


Home > Europe > Switzerland
Elevation: 1867 feet     Latitude: 47 22N     Longitude: 008 34E

WEATHER
 
SELECT A DAY
Number of Records: 287,547;   Date Range: 7/1/96 - 9/18/14
 
SHARE

PRINT THIS DATA

[ ← Previous Day ]
WEATHER ALMANAC - JANUARY 31, 2013
[ Next Day → ]
[ °C ]   °F
Weather ElementAverageHighLow
Temperature45.7 °F51.8 °F (2:50 pm)35 °F (9:00 am)
Dewpoint33.4 °F39.2 °F (9:20 pm)26.6 °F (5:20 pm)
Humidity60.8 %87 % (7:50 am)29 % (5:00 pm)
Barometer30.20 in30.32 in (3:00 am)30.09 in (4:20 pm)
Wind Speed11.6 mph23 mph (5:50 pm)
Wind Gust36.8 mph (8:20 pm)
Weather ElementAverage
Visibility7.8 mi
Wind DirectionSSW (208 °)

Weather ElementTotal
Precipitation---
Heating Degree Days21.6 (Base 65)
Averaged from 66 records on January 31, 2013
WEATHER CONDITIONS BREAKOUT
WIND DIRECTION BREAKOUT
WEATHER BY HOUR - JANUARY 31, 2013
[ °C ]   °F
Local TimeTemperatureDewpointHumidityBarometerVisibilityWind DirectionWind SpeedGust SpeedPrecipitationEventsConditions
12:20 AM48.2 °F37.4 °F66 %30.21 in6.2 miWSW (250°)13.8 mph27.6 mphMostly Cloudy
12:50 AM46.4 °F37.4 °F71 %30.24 in6.2 miSSW (210°)9.2 mphMostly Cloudy
1:00 AM47.0 °F37.0 °F57 %30.29 in22.0 miWSW (240°)5.8 mphPartly Cloudy
1:50 AM46.4 °F35.6 °F66 %30.27 in6.2 miSSW (200°)6.9 mphMostly Cloudy
2:00 AM46.0 °F37.0 °F60 %30.30 inSW (220°)8.1 mph
2:20 AM46.4 °F35.6 °F66 %30.27 in6.2 miSSW (200°)6.9 mphMostly Cloudy
2:50 AM44.6 °F33.8 °F66 %30.27 in6.2 miSouth (190°)4.6 mphMostly Cloudy
3:00 AM43.0 °F33.0 °F59 %30.32 inSouth (190°)5.8 mph
3:20 AM42.8 °F33.8 °F70 %30.27 in6.2 miSSE (160°)6.9 mphMostly Cloudy
3:50 AM41.0 °F33.8 °F76 %30.27 in6.2 miSSW (210°)5.8 mphPartly Cloudy
4:20 AM41.0 °F32.0 °F70 %30.27 inSSW (210°)6.9 mphClear
4:50 AM42.8 °F32.0 °F66 %30.24 in6.2 miSW (220°)10.4 mphPartly Cloudy
5:00 AM43.0 °F32.0 °F54 %30.30 inWSW (240°)8.1 mph
5:20 AM41.0 °F30.2 °F65 %30.27 in6.2 miSSE (160°)4.6 mphPartly Cloudy
5:50 AM39.2 °F32.0 °F75 %30.24 in6.2 miSSE (160°)5.8 mphPartly Cloudy
6:00 AM41.0 °F31.0 °F58 %30.30 inSouth (180°)5.8 mph
6:20 AM41.0 °F32.0 °F70 %30.24 in6.2 miSouth (180°)5.8 mphPartly Cloudy
6:50 AM37.4 °F32.0 °F81 %30.24 in6.2 miSW (230°)3.5 mphPartly Cloudy
7:00 AM38.0 °F31.0 °F69 %30.30 in22.0 miSSW (210°)6.9 mphScattered Clouds
7:20 AM35.6 °F30.2 °F81 %30.24 in6.2 miVariable1.2 mphPartly Cloudy
7:50 AM35.6 °F32.0 °F87 %30.24 in6.2 miVariable2.3 mphScattered Clouds
8:00 AM36.0 °F31.0 °F76 %30.30 inSSW (200°)5.8 mph
8:20 AM35.6 °F32.0 °F87 %30.24 in6.2 miSSW (210°)3.5 mphScattered Clouds
8:50 AM37.4 °F32.0 °F81 %30.24 in6.2 miVariable2.3 mphScattered Clouds
9:00 AM35.0 °F32.0 °F85 %30.31 inSouth (190°)6.9 mph
9:20 AM37.4 °F32.0 °F81 %30.24 in6.2 miSouth (180°)4.6 mphMostly Cloudy
9:50 AM42.8 °F35.6 °F76 %30.24 in6.2 miSSW (210°)4.6 mphMostly Cloudy
10:20 AM46.4 °F35.6 °F66 %30.24 in6.2 miSW (220°)6.9 mphMostly Cloudy
10:50 AM44.6 °F35.6 °F71 %30.24 in6.2 miSSW (200°)5.8 mphMostly Cloudy
11:00 AM46.0 °F37.0 °F60 %30.26 inSW (220°)9.2 mph
11:20 AM46.4 °F37.4 °F71 %30.24 in6.2 miSSW (200°)10.4 mphScattered Clouds
11:50 AM46.4 °F37.4 °F71 %30.21 in6.2 miSSW (210°)11.5 mphScattered Clouds
12:00 PM47.0 °F36.0 °F55 %30.23 inSW (230°)12.7 mph
12:20 PM46.4 °F35.6 °F66 %30.18 in6.2 miSW (220°)10.4 mphMostly Cloudy
12:50 PM48.2 °F35.6 °F62 %30.18 in6.2 miSW (220°)13.8 mphMostly Cloudy
1:00 PM50.0 °F36.0 °F47 %30.19 in22.0 miSW (230°)15.0 mphScattered Clouds
1:20 PM50.0 °F35.6 °F58 %30.15 in6.2 miSW (220°)16.1 mphScattered Clouds
1:50 PM50.0 °F35.6 °F58 %30.15 in6.2 miSW (220°)15.0 mphScattered Clouds
2:00 PM50.0 °F34.0 °F42 %30.17 inSW (230°)17.3 mph
2:20 PM50.0 °F33.8 °F54 %30.15 in6.2 miSW (220°)17.3 mph32.2 mphMostly Cloudy
2:50 PM51.8 °F32.0 °F47 %30.15 in6.2 miSW (220°)15.0 mphMostly Cloudy
3:00 PM51.0 °F31.0 °F34 %30.16 inWSW (240°)18.4 mph
3:20 PM51.8 °F30.2 °F44 %30.12 in6.2 miSW (220°)16.1 mphMostly Cloudy
3:50 PM50.0 °F28.4 °F43 %30.12 in6.2 miSW (230°)18.4 mphMostly Cloudy
4:20 PM50.0 °F28.4 °F43 %30.09 in6.2 miSW (220°)20.7 mphMostly Cloudy
4:50 PM50.0 °F28.4 °F43 %30.09 in6.2 miSW (230°)20.7 mph34.5 mphMostly Cloudy
5:00 PM50.0 °F27.0 °F29 %30.13 inWSW (240°)16.1 mph
5:20 PM50.0 °F26.6 °F40 %30.09 in6.2 miSW (230°)19.6 mph33.4 mphMostly Cloudy
5:50 PM50.0 °F28.4 °F43 %30.09 in6.2 miSW (230°)23.0 mph35.7 mphMostly Cloudy
6:00 PM50.0 °F27.0 °F29 %30.13 inWSW (240°)19.6 mph
6:20 PM50.0 °F30.2 °F47 %30.12 in6.2 miWSW (240°)20.7 mph35.7 mphMostly Cloudy
6:50 PM50.0 °F30.2 °F47 %30.12 in6.2 miWSW (240°)16.1 mphMostly Cloudy
7:00 PM49.0 °F30.0 °F35 %30.13 in37.0 miWSW (240°)17.3 mphOvercast
7:20 PM50.0 °F30.2 °F47 %30.12 in6.2 miSW (230°)16.1 mph28.8 mphMostly Cloudy
7:50 PM50.0 °F32.0 °F50 %30.09 in6.2 miSW (230°)13.8 mph25.3 mphMostly Cloudy
8:00 PM49.0 °F32.0 °F40 %30.13 inWSW (240°)13.8 mph
8:20 PM48.2 °F35.6 °F62 %30.12 in6.2 miSW (230°)23.0 mph36.8 mphRainLight Rain
8:50 PM48.2 °F37.4 °F66 %30.12 in6.2 miWSW (240°)15.0 mph27.6 mphMostly Cloudy
9:00 PM48.0 °F36.0 °F54 %30.14 inWSW (240°)18.4 mph
9:20 PM46.4 °F39.2 °F76 %30.12 in6.2 miWSW (240°)15.0 mph27.6 mphRainLight Rain
9:50 PM48.2 °F37.4 °F66 %30.12 in6.2 miSW (230°)19.6 mphMostly Cloudy
10:20 PM48.2 °F37.4 °F66 %30.12 in6.2 miSW (230°)18.4 mph34.5 mphMostly Cloudy
10:50 PM48.2 °F37.4 °F66 %30.12 in6.2 miSW (230°)12.7 mphMostly Cloudy
11:00 PM47.0 °F38.0 °F61 %30.14 inWSW (240°)15.0 mph
11:20 PM48.2 °F37.4 °F66 %30.12 in6.2 miSW (230°)11.5 mphMostly Cloudy
11:50 PM48.2 °F39.2 °F71 %30.12 in6.2 miSSW (210°)9.2 mphMostly Cloudy
Hourly data recorded from LSMD, located miles away from Kusnacht, Switzerland







STORIES FROM OUR PARTNERS